Regional Weather Roundup
Issued by NWS

Home | Current Version | Previous Version | Text Only | Print | Product List | Glossary On
Versions: 1 2 3 4 5 6 7 8 9 10 11 12 13 14 15 16 17 18 19 20 21 22 23 24 25 26 27 28 29 30 31 32 33 34 35 36 37 38 39 40 41 42 43 44 45 46 47 48 49 50
000
ASUS43 KBIS 072210
RWRND

NORTH DAKOTA REGIONAL WEATHER ROUNDUP
NATIONAL WEATHER SERVICE BISMARCK ND
400 PM CST SUN FEB 07 2016

NOTE: "FAIR" INDICATES FEW OR NO CLOUDS BELOW 12,000 FEET WITH NO
SIGNIFICANT WEATHER AND/OR OBSTRUCTIONS TO VISIBILITY.


NDZ001>003-009>011-017-072300-
NORTHWEST NORTH DAKOTA

CITY           SKY/WX    TMP DP  RH WIND       PRES   REMARKS
WILLISTON      SUNNY     36  18  48 NW35G45   30.19R
MINOT          MOSUNNY   34  17  50 NW36G47   30.03R WCI  19
MINOT AFB      PTSUNNY   32  19  56 NW38G47   30.02R WCI  17
$$

NDZ018>021-031>035-040>046-072300-
SOUTHWEST NORTH DAKOTA

CITY           SKY/WX    TMP DP  RH WIND       PRES   REMARKS
BISMARCK       PTSUNNY   36  17  46 NW25G40   30.03R
DICKINSON      PTSUNNY   33  11  39 NW37G47   30.12R WCI  18
GARRISON         N/A     34  17  50 NW43G58   30.02R WCI  18
HETTINGER ARPT MOSUNNY   35  10  35 NW39G49   30.13R
$$

NDZ004>008-012>016-024-026-027-054-072300-
NORTHEAST NORTH DAKOTA

CITY           SKY/WX    TMP DP  RH WIND       PRES   REMARKS
GRAND FORKS    SNOW      18  11  74 N26G36    29.88R VSB 1/4 WCI  -1
GRND FRKS AFB  LGT SNOW  18  12  79 N24G32    29.88R WCI   0
$$

NDZ022-023-025-028>030-036>039-047>053-072300-
SOUTHEAST NORTH DAKOTA

CITY           SKY/WX    TMP DP  RH WIND       PRES   REMARKS
FARGO          FLURRIES  24  15  68 N31G38    29.84R WCI   7
JAMESTOWN      LGT SNOW  22  17  81 NW30G41   29.89R WCI   4
$$




USA.gov is the U.S. government's official web portal to all federal, state and local government web resources and services.